{"data":{"norad_id":46033,"epoch":"2026-05-25T05:28:31.423872Z","epoch_age_seconds":55004,"freshness":"FRESH","line1":"1 46033U 20055G   26145.22814148  .00001242  00000+0  54059-4 0  9991","line2":"2 46033  53.1601 131.2004 0001600 111.3275 248.7896 15.30196819320587","mean_motion":15.30196819,"eccentricity":0.00016,"inclination_deg":53.1601,"raan_deg":131.2004,"arg_perigee_deg":111.3275,"mean_anomaly_deg":248.7896,"bstar":5.4059e-5,"rev_number":32058,"period_min":94.105541334288,"perigee_km":474.12802947763,"apogee_km":476.32110517917,"semimajor_km":6853.3615673284,"source":"CELESTRAK","updated_at":"2026-05-25T13:38:16.459171Z"}}